sat.trackr.live / text

‹ back to catalog

STARLINK-11185 [DTC]

NORAD 62588 · 2025-008B

PAYLOAD ACTIVE UNKNOWN

§ Identity

Operator
Country
US
Launch date
2025-01-13
Launch site
AFETR
Launch vehicle
Mass (kg)
RCS (m²)

Purposes: comms

External: N2YO · Heavens-Above · Gunter

§ Orbital elements

Epoch: 2026-05-25T00:46:30.427968Z

Period
91.67 min
Inclination
43.0038°
Eccentricity
0.0002345
Mean motion
15.70873072 rev/d
Perigee alt
354.8 km
Apogee alt
358.0 km
Semi-major
6,734.5 km
B*
1.3759e-3
RAAN
25.7567°
Arg perigee
266.3833°
Mean anomaly
93.6767°
Rev number
7,812

§ Raw data

STARLINK-11185 [DTC]1 62588U 25008B   26145.03229662  .00180239  00000+0  13759-2 0  99912 62588  43.0038  25.7567 0002345 266.3833  93.6767 15.70873072 78122

JSON: /api/v1/satellites/62588 · /tle

For live sub-satellite position, see the globe view (requires WebGL).

§ Visibility from observer

Set your observer location to see the next 7 days of passes ≥ 10°. The values pass through the URL so the page stays shareable.

No JS? Fill the form by hand. The geolocation button needs JavaScript.